Location: Newark
(1.4692°S, 78.8175°W)
Time: 01:54:26
(UTC+00:00)

OTV 5 (USA 277) - Visible Passes

Search period start: 16 October 2019 00:00
Search period end: 26 October 2019 00:00
Orbit: 310 x 324 km, 54.5° (Epoch: 08 October)

Date Brightness Start Highest point End Pass type
(mag) Time Alt. Az. Time Alt. Az. Time Alt. Az.
19 Oct ? 23:58:09 10° SSE 23:58:20 11° SE 23:58:20 11° SE visible
21 Oct ? 00:11:10 10° SSW 00:13:26 51° SSE 00:13:26 51° SSE visible
22 Oct ? 00:26:08 10° WSW 00:28:18 21° WNW 00:28:36 21° NW visible
24 Oct ? 23:37:06 10° WNW 23:37:40 10° WNW 23:38:12 10° NW visible
